TITAN 3C TRANSTAGE DEB, 5998

Orbit data source: Space-Track

TITAN 3C TRANSTAGE DEB, 5998 is space debris in HEO originally from a launch on Tue, 21 Dec 1965 UTC launched from the Air Force Eastern Test Range (AFETR). Debris objects in space refer to the collection of defunct objects orbiting the Earth. Examples of debris include non-operational satellites, rocket bodies, and fragments generated from explosions, collisions, or faulty payload assembly.

Loading next visibility...
Identifier
5998, 1965-108T
Orbit
HEO
Country
Flag of USUS
Related business
Manufacturer
Unknown
Mission
Spacecraft
Bus & Motor
Unknown
Mass
Unknown
Launch date (UTC)
1965-12-21 (60 years ago)
Launch vehicle
Unknown
Launch site
Air Force Eastern Test Range (AFETR)
Object type
Payload
Rocket body
Debris
Shape & HBR
Unknown shape, 0.2 m
Radar Cross Section
Medium (>0.1 m² and <1 m²)

Expand to show TLE details & history
Last TLE update: 1 day ago

TLE from 1 day ago
0 TITAN 3C TRANSTAGE DEB
1 05998U 65108T   26150.03586653  .00002138  00000-0  13559-1 0  9999
2 05998  26.5220  42.4290 6563100  92.3209   5.4023  3.03499973148179
Epoch: 2026-05-30T00:51Z
TLE epoch observation values (Epoch: 2026-05-30T00:51:38.868Z)
Latitude
21.30598°
Longitude
-89.03913°
Altitude
1,049.725 km
Speed
9.358 km/s
True Right ascension
11h 25m 43s
True Declination
21° 11' 40"
Sunlit
Object was in daylight at epoch
Visualization orbit readout
Latitude
Unknown
Longitude
Unknown
Altitude
Unknown
Speed
Unknown
Apparent Right ascension
Unknown
Apparent Declination
Unknown
Sunlit
N/A
Visualization observer readout
Local Sidereal Time
14:33:27
Azimuth
Unknown
Elevation
Unknown
Doppler factor
Unknown
Orbital elements
Apogee altitude
27,004.054 km
Perigee altitude
548.782 km
Semi-major axis
20,154.555 km
Eccentricity
0.65631
Inclination
26.522°
RAAN
42.429°
Arg. of periapsis
92.3209°
True anomaly
32.99709°
Mean anomaly
5.4023°
Eccentric anomaly
15.36791°
Mean motion
0.75855 °/min
Orbital period
474.59 mins
BSTAR
0.013559
Loading maneuver chart data...
Computing Atmospheric mass density...

Documentation

Showing up to 5 results
|